{"data":{"norad_id":63495,"epoch":"2026-05-24T17:25:46.977888Z","epoch_age_seconds":94839,"freshness":"FRESH","line1":"1 63495U 25071C   26144.72623817  .00008296  00000+0  29195-3 0  9998","line2":"2 63495  53.1586 146.5857 0001229  83.4879 276.6262 15.30196711 64393","mean_motion":15.30196711,"eccentricity":0.0001229,"inclination_deg":53.1586,"raan_deg":146.5857,"arg_perigee_deg":83.4879,"mean_anomaly_deg":276.6262,"bstar":0.00029195,"rev_number":6439,"period_min":94.105547976178,"perigee_km":474.38261162181,"apogee_km":476.06716797432,"semimajor_km":6853.3618897981,"source":"CELESTRAK","updated_at":"2026-05-25T13:38:20.011855Z"}}